Weather History for Kankakee, IL

Change the Weather History Date:

Saturday, September 14, 2013

  Actual Average Record
Temperature  
Mean Temperature 56 °F -  
Max Temperature 71 °F 78 °F 92 °F (1980)
Min Temperature 41 °F 54 °F 40 °F (1985)
Degree Days  
Heating Degree Days 10    
Growing Degree Days 6 (Base 50)    
Moisture  
Dew Point 43 °F    
Average Humidity 69    
Maximum Humidity 99    
Minimum Humidity 32    
Precipitation  
Precipitation 0.00 in - - ()
Sea Level Pressure  
Sea Level Pressure 30.14 in    
Wind  
Wind Speed 1 mph (SE)    
Max Wind Speed 7 mph    
Max Gust Speed -    
Visibility 10 miles    
Events      
Averages and records for this station are not official NWS values.
T = Trace of Precipitation, MM = Missing Value Source: NWS Daily Summary

Daily Weather History Graph

Daily Weather History Graph

Search for Another Location

Airport:

Trip Planner

Search our weather history database for the weather conditions in past years. The results will help you decide how hot, cold, wet, or windy it might be!

Date:

Astronomy

Sep. 14, 2013 Rise Set
Actual Time 6:31 AM CDT 7:01 PM CDT
Civil Twilight 6:03 AM CDT 7:29 PM CDT
Nautical Twilight 5:30 AM CDT 8:01 PM CDT
Astronomical Twilight 4:57 AM CDT 8:35 PM CDT
Moon 3:44 PM CDT (9/14) 1:00 AM CDT (9/14)
Length of Visible Light 13h 25m
Length of Day
12h 30m
Waxing Gibbous, 72% of the Moon is Illuminated
Sep 14
Waxing Gibbous
Sep 19
Full
Sep 26
Last Quarter
Oct 4
New
Oct 11
First Quarter

Hourly Weather History & Observations

Time (CDT) Temp. Windchill Dew Point Humidity Pressure Visibility Wind Dir Wind Speed Gust Speed Precip Events Conditions
12:15 AM 47.8 °F - 45.1 °F 90% 30.15 in 10.0 mi Calm Calm - N/A   Clear
12:35 AM 48.0 °F - 45.3 °F 90% 30.15 in 10.0 mi Calm Calm - N/A   Clear
12:55 AM 46.6 °F - 45.1 °F 95% 30.15 in 10.0 mi Calm Calm - N/A   Clear
1:15 AM 45.5 °F - 44.1 °F 95% 30.16 in 10.0 mi Calm Calm - N/A   Clear
1:35 AM 44.6 °F - 43.5 °F 96% 30.16 in 10.0 mi Calm Calm - N/A   Clear
1:55 AM 45.3 °F - 44.1 °F 95% 30.16 in 10.0 mi Calm Calm - N/A   Clear
2:15 AM 43.5 °F - 43.0 °F 98% 30.16 in 10.0 mi Calm Calm - N/A   Clear
2:35 AM 44.6 °F - 43.7 °F 97% 30.16 in 10.0 mi Calm Calm - N/A   Clear
2:55 AM 44.1 °F 42.5 °F 43.5 °F 98% 30.16 in 10.0 mi West 3.5 mph - N/A   Clear
3:15 AM 43.0 °F - 42.6 °F 99% 30.16 in 10.0 mi Calm Calm - N/A   Clear
3:35 AM 43.5 °F - 42.8 °F 97% 30.16 in 4.0 mi Calm Calm - N/A   Clear
3:55 AM 43.0 °F - 42.6 °F 99% 30.17 in 4.0 mi Calm Calm - N/A   Clear
4:15 AM 41.9 °F - 41.4 °F 98% 30.17 in 10.0 mi Calm Calm - N/A   Clear
4:35 AM 42.1 °F - 41.7 °F 99% 30.17 in 10.0 mi Calm Calm - N/A   Clear
4:55 AM 41.0 °F - 40.8 °F 99% 30.17 in 10.0 mi Calm Calm - N/A   Clear
5:15 AM 41.5 °F - 41.2 °F 99% 30.17 in 7.0 mi Calm Calm - N/A   Clear
5:35 AM 42.8 °F - 42.3 °F 98% 30.17 in 10.0 mi Calm Calm - N/A   Clear
5:55 AM 41.9 °F - 41.2 °F 97% 30.17 in 10.0 mi Calm Calm - N/A   Clear
6:15 AM 41.9 °F - 41.5 °F 99% 30.18 in 10.0 mi Calm Calm - N/A   Clear
6:35 AM 41.4 °F - 41.0 °F 99% 30.19 in 10.0 mi Calm Calm - N/A   Clear
6:55 AM 41.4 °F - 41.0 °F 99% 30.20 in 10.0 mi Calm Calm - N/A   Clear
7:15 AM 42.4 °F - 41.9 °F 98% 30.20 in 10.0 mi Calm Calm - N/A   Clear
7:35 AM 46.0 °F - 44.8 °F 95% 30.20 in 10.0 mi Calm Calm - N/A   Clear
7:55 AM 49.5 °F - 46.9 °F 91% 30.21 in 10.0 mi Calm Calm - N/A   Clear
8:15 AM 50.7 °F - 46.9 °F 87% 30.20 in 10.0 mi Calm Calm - N/A   Clear
8:35 AM 52.9 °F - 47.8 °F 83% 30.20 in 10.0 mi Calm Calm - N/A   Clear
8:55 AM 54.5 °F - 47.3 °F 77% 30.21 in 10.0 mi Calm Calm - N/A   Clear
9:15 AM 56.1 °F - 47.1 °F 72% 30.21 in 10.0 mi SE 4.6 mph - N/A   Clear
9:35 AM 57.0 °F - 46.2 °F 67% 30.21 in 10.0 mi ESE 4.6 mph - N/A   Clear
9:55 AM 58.6 °F - 45.3 °F 61% 30.20 in 10.0 mi ESE 6.9 mph - N/A   Clear
10:15 AM 59.4 °F - 45.9 °F 61% 30.20 in 10.0 mi South 5.8 mph - N/A   Clear
10:35 AM 61.0 °F - 45.9 °F 58% 30.20 in 10.0 mi SE 3.5 mph - N/A   Clear
10:55 AM 61.3 °F - 43.2 °F 51% 30.20 in 10.0 mi ESE 3.5 mph - N/A   Clear
11:15 AM 62.6 °F - 43.3 °F 49% 30.20 in 10.0 mi ESE 6.9 mph - N/A   Clear
11:35 AM 62.6 °F - 39.6 °F 43% 30.19 in 10.0 mi South 5.8 mph - N/A   Clear
11:55 AM 63.9 °F - 40.8 °F 43% 30.19 in 10.0 mi East 4.6 mph - N/A   Clear
12:15 PM 64.4 °F - 38.3 °F 38% 30.18 in 10.0 mi SE 5.8 mph - N/A   Clear
12:35 PM 65.1 °F - 40.5 °F 40% 30.18 in 10.0 mi SE 4.6 mph - N/A   Clear
12:55 PM 65.1 °F - 38.5 °F 37% 30.17 in 10.0 mi Calm Calm - N/A   Clear
1:15 PM 67.3 °F - 39.6 °F 36% 30.17 in 10.0 mi Calm Calm - N/A   Clear
1:35 PM 66.6 °F - 37.2 °F 34% 30.16 in 10.0 mi ESE 4.6 mph - N/A   Clear
1:55 PM 68.4 °F - 39.2 °F 34% 30.15 in 10.0 mi SSE 5.8 mph - N/A   Clear
2:15 PM 68.2 °F - 39.0 °F 34% 30.14 in 10.0 mi ESE 6.9 mph - N/A   Clear
2:35 PM 68.9 °F - 40.5 °F 35% 30.13 in 10.0 mi SE 3.5 mph - N/A   Clear
2:55 PM 69.3 °F - 39.6 °F 34% 30.12 in 10.0 mi ESE 5.8 mph - N/A   Clear
3:15 PM 69.8 °F - 41.2 °F 35% 30.12 in 10.0 mi South 6.9 mph - N/A   Clear
3:35 PM 70.3 °F - 41.5 °F 35% 30.11 in 10.0 mi SW 6.9 mph - N/A   Clear
3:55 PM 70.3 °F - 41.0 °F 34% 30.11 in 10.0 mi Calm Calm - N/A   Clear
4:15 PM 69.3 °F - 39.0 °F 33% 30.09 in 10.0 mi Calm Calm - N/A   Clear
4:35 PM 70.0 °F - 40.1 °F 34% 30.09 in 10.0 mi East 4.6 mph - N/A   Clear
4:55 PM 69.8 °F - 38.8 °F 32% 30.09 in 10.0 mi SSE 5.8 mph - N/A   Clear
5:15 PM 69.6 °F - 39.9 °F 34% 30.09 in 10.0 mi SSE 4.6 mph - N/A   Clear
5:35 PM 69.1 °F - 38.8 °F 33% 30.09 in 10.0 mi SE 5.8 mph - N/A   Clear
5:55 PM 67.3 °F - 40.3 °F 37% 30.08 in 10.0 mi SE 3.5 mph - N/A   Clear
6:15 PM 67.8 °F - 42.1 °F 39% 30.08 in 10.0 mi SE 3.5 mph - N/A   Clear
6:35 PM 67.1 °F - 40.8 °F 38% 30.08 in 10.0 mi Calm Calm - N/A   Clear
6:55 PM 63.0 °F - 44.2 °F 50% 30.08 in 10.0 mi Calm Calm - N/A   Clear
7:15 PM 60.3 °F - 44.8 °F 57% 30.08 in 4.0 mi Calm Calm - N/A   Haze
7:35 PM 57.7 °F - 46.0 °F 65% 30.08 in 10.0 mi Calm Calm - N/A   Clear
7:55 PM 56.1 °F - 48.9 °F 77% 30.08 in 10.0 mi Calm Calm - N/A   Clear
8:15 PM 53.2 °F - 48.0 °F 82% 30.08 in 10.0 mi Calm Calm - N/A   Clear
8:35 PM 54.5 °F - 47.3 °F 77% 30.09 in 10.0 mi Calm Calm - N/A   Clear
8:55 PM 53.4 °F - 46.4 °F 77% 30.08 in 10.0 mi Calm Calm - N/A   Clear
9:15 PM 53.8 °F - 45.9 °F 75% 30.08 in 10.0 mi ESE 4.6 mph - N/A   Clear
9:35 PM 53.2 °F - 45.7 °F 76% 30.08 in 10.0 mi Calm Calm - N/A   Clear
9:55 PM 49.8 °F - 45.9 °F 86% 30.08 in 10.0 mi Calm Calm - N/A   Clear
10:15 PM 49.6 °F - 45.9 °F 87% 30.08 in 10.0 mi Calm Calm - N/A   Clear
10:35 PM 51.3 °F - 45.5 °F 81% 30.07 in 10.0 mi Calm Calm - N/A   Clear
10:55 PM 50.0 °F - 44.4 °F 81% 30.08 in 10.0 mi South 3.5 mph - N/A   Clear
11:15 PM 52.2 °F - 43.2 °F 71% 30.07 in 10.0 mi South 4.6 mph - N/A   Clear
11:35 PM 53.6 °F - 42.6 °F 66% 30.07 in 10.0 mi South 4.6 mph - N/A   Clear
11:55 PM 52.2 °F - 43.2 °F 71% 30.07 in 10.0 mi South 3.5 mph - N/A   Clear